AirNav   Pilot Hours Calculator
 
 1170 users online  

5B9 Dean Memorial Airport
Haverhill, New Hampshire, USA

GOING TO HAVERHILL?


FAA INFORMATION EFFECTIVE 31 DECEMBER 2020

Location

FAA Identifier: 5B9
Lat/Long: 44-04-48.6222N 072-00-27.9357W
44-04.810370N 072-00.465595W
44.0801728,-72.0077599
(estimated)
Elevation: 581.7 ft. / 177.3 m (surveyed)
Variation: 16W (2005)
From city: 3 miles NE of HAVERHILL, NH
Time zone: UTC -5 (UTC -4 during Daylight Saving Time)
Zip code: 03774

Airport Operations

Airport use: Open to the public
Activation date: 07/1902
Control tower: no
ARTCC: BOSTON CENTER
FSS: BANGOR FLIGHT SERVICE STATION
NOTAMs facility: BGR (NOTAM-D service available)
Attendance: SATURDAY 0900-1200
Wind indicator: lighted
Segmented circle: no
Lights: ACTVT LIRL RY 01/19 & WINDSOCK - CTAF.

Airport Communications

CTAF/UNICOM: 122.8
  • APCH/DEP SVC PRVDD BY BOSTON ARTCC ON FREQS 135.7/282.2 (MONTPELIER RCAG).

Nearby radio navigation aids

VOR radial/distance  VOR name  Freq  Var
MPVr107/19.0MONTPELIER VOR/DME110.8016W
LEBr036/25.7LEBANON VOR/DME113.7015W

 
NDB name  Hdg/Dist  Freq  Var  ID
MAHN236/21.938617WGMA --. -- .-
HANOVER033/23.827615WLAH .-.. .- ....

Airport Services

Fuel available: 100LL
MUST CALL IN ADVN FOR FUEL. CALL 603-809-2567 OR 603-616-1247.
Parking: tiedowns
Airframe service: NONE
Powerplant service: NONE
Bottled oxygen: NONE
Bulk oxygen: NONE

Runway Information

Runway 1/19

Dimensions: 2511 x 58 ft. / 765 x 18 m
Surface: asphalt, in fair condition
Weight bearing capacity: 
Single wheel: 8.5
Runway edge lights: low intensity
NSTD SPACING, FIRST 185 FT RWY 01 NOT LGTD.
RUNWAY 1  RUNWAY 19
Latitude: 44-04.605733N44-05.015008N
Longitude: 072-00.425992W072-00.505202W
Elevation: 581.7 ft.546.0 ft.
Traffic pattern: leftleft
Runway heading: 008 magnetic, 352 true188 magnetic, 172 true
Displaced threshold: 185 ft.no
Markings: basic, in good conditionnonprecision, in good condition
Touchdown point: yes, no lightsyes, no lights
Obstructions: 15 ft. road, 200 ft. from runway, 136 ft. right of centerline
PUBLIC DIRT ROAD 5 FT FROM RY END EXTENDING BOTH LEFT AND RIGHT OF CL. ALSO TREES 66FT RWY END 150 FT LEFT.
34 ft. pole, lighted, 292 ft. from runway, 208 ft. left of centerline, 2:1 slope to clear
35 FT UTILITY POLE 160 FT FM RY END 204 FT LEFT OF CL LIGHTED

Airport Ownership and Management from official FAA records

Ownership: Publicly-owned
Owner: TOWN OF HAVERHILL
2975 DARTMOUTH COLLEGE HWY
N. HAVERHILL, NH 03774
Phone 603-787-6800
DEAN MEMORIAL ARPT COMMISSION.
Manager: RALPH CROSWELL
67 TUNNEL STREAM RD
BENTON, NH 03785
Phone (603) 809-2567

Airport Operational Statistics

Aircraft based on the field: 10
Single engine airplanes: 10
    
Aircraft operations: avg 57/week *
75% local general aviation
25% transient general aviation
* for 12-month period ending 17 September 2018

Additional Remarks

FOR WINTER CONDS CALL 603-616-1247 24 HRS BFR USE.
FOR CD CTC BOSTON ARTCC AT 603-879-6859.

Instrument Procedures

NOTE: All procedures below are presented as PDF files. If you need a reader for these files, you should download the free Adobe Reader.

NOT FOR NAVIGATION. Please procure official charts for flight.
FAA instrument procedures published for use from 31 December 2020 at 0901Z to 28 January 2021 at 0900Z.

 
IAPs - Instrument Approach Procedures
RNAV (GPS) RWY 19   download (266KB)
NOTE: Special Take-Off Minimums/Departure Procedures apply   download (178KB)

Other nearby airports with instrument procedures:

KMPV - Edward F Knapp State Airport (25 nm W)
KHIE - Mount Washington Regional Airport (26 nm NE)
KCDA - Caledonia County Airport (29 nm N)
KLEB - Lebanon Municipal Airport (30 nm SW)
KMVL - Morrisville-Stowe State Airport (38 nm NW)
 
Loc | Ops | Rwys | IFR | FBO | Links
Com | Nav | Svcs | Stats | Notes
Area around 5B9 (Dean Memorial Airport)
 
Road maps at: MapQuest Bing Google
 
Aerial photo
WARNING: Photo may not be current or correct
Aerial photo of 5B9 (Dean Memorial Airport)
Photo courtesy of Aerial Design Photography

Do you have a better or more recent aerial photo of Dean Memorial Airport that you would like to share? If so, please send us your photo.

 
Sectional chart

 
Airport distance calculator
Flying to Dean Memorial Airport? Find the distance to fly.

From to 5B9

Sunrise and sunset
Times for 19-Jan-2021
 Local
(UTC-5)
 Zulu
(UTC)
Morning civil twilight06:4711:47
Sunrise07:1912:19
Sunset16:3921:39
Evening civil twilight17:1122:11

Current date and time
Zulu (UTC)  19-Jan-2021 14:29:34
Local (UTC-5)  19-Jan-2021 09:29:34
 
METAR
K1V4 
20nm N 
191354Z AUTO M13/M16 A2997 RMK AO1 SLP171 T11331161
K1P1 
21nm SE 
191415Z AUTO 27007G17KT 10SM CLR M06/M12 A2997 RMK AO2 T10611116
KMPV 
25nm W 
191351Z AUTO 07003KT 10SM CLR M13/M14 A2998 RMK AO2 SLP178 T11281139
KHIE 
26nm NE 
191352Z AUTO 00000KT 10SM SCT110 M16/M17 A2995 RMK AO2 SLP164 T11561167
KCDA 
29nm N 
191415Z AUTO 00000KT 10SM CLR M14/M15 A2996 RMK AO2 T11381154
KLEB 
30nm SW 
191353Z 00000KT 10SM SCT110 M07/M11 A2999 RMK AO2 SLP168 T10721111
KMWN 
33nm E 
191354Z 30033KT 80SM OVC040 M16/M21 RMK
KMVL 
36nm NW 
191354Z AUTO 20004KT 10SM FEW100 FEW120 M12/M14 A2999 RMK AO2 SLP170 T11221144
KCWN 
36nm E 
191358Z AUTO 00000KT 10SM FEW031 BKN043 BKN130 M07/M11 A3029 RMK AO2 SLP221 T10681114 PWINO FZRANO $
KLCI 
40nm SE 
191356Z AUTO 23010KT 10SM OVC100 M05/M11 A2995 RMK AO2 SLP151 T10501111 FZRANO
TAF
KMPV 
25nm W 
191125Z 1912/2012 00000KT P6SM SCT150 FM192200 00000KT P6SM VCSH BKN045 FM200000 00000KT P6SM VCSH OVC030 FM200700 23005KT P6SM BKN030
KHIE 
26nm NE 
191120Z 1912/2012 00000KT P6SM SKC FM200000 00000KT P6SM OVC050 FM200400 00000KT 2SM -SN OVC050
KLEB 
30nm SW 
191120Z 1912/2012 01003KT P6SM OVC110 FM200600 21004KT P6SM OVC050
NOTAMs
Click for the latest NOTAMs
NOTAMs are issued by the DoD/FAA and will open in a separate window not controlled by AirNav.

 

 
 

FBO, Fuel Providers, and Aircraft Ground Support

  
 Business Name 
 
 Contact 
 
 Services / Description 
 
Fuel Prices
 
Comments
  
Dean Memorial Airport 603-738-4158
no information available

If you are affiliated with Dean Memorial Airport and would like to show here your services, contact info, web link, logo, and more, click here
100LL
AS $4.95 
 Updated 28-Dec-2020
 
   write
AS=Assisted/Self Service
Update Fuel Prices
 

Would you like to see your business listed on this page?

 If your business provides an interesting product or service to pilots, flight crews, aircraft, or users of the Dean Memorial Airport, you should consider listing it here.  To start the listing process, click on the button below
 
Add a business
 

Other Pages about Dean Memorial Airport

www.haverhill-nh.com/index.asp?SEC=2E4CB1B4-EC8A-4673-8079-2C23DD1DFB53&Type=B_BASIC
 
Update a link
 
Copyright © AirNav, LLC. All rights reserved. Privacy Policy  Contact